STARLINK-38086

Last updated on Sun Aug 09 2026 00:02:04 GMT+0000 (Coordinated Universal Time)

1 69998U 26159Z 26220.53381646 .00141480 00000+0 93456-3 0 9999 2 69998 97.2835 60.5426 0001229 48.7301 311.4070 15.75170729 5709
UTC large
Height (km)
Speed (km/s)
/
Latitude / Longitude
Inclination (degrees)
Orbital Period (minutes)
Azimuth
Elevation
Range (km)
Doppler Factor

Next 0 passes for location: London (51.5072 / 0.1276)

No passes found over London.
STARLINK-38086